ASTRA 1KR

Last updated on Sun Jun 21 2026 00:03:03 GMT+0000 (Coordinated Universal Time)

1 29055U 06012A 26171.32444138 .00000114 00000+0 00000+0 0 9990 2 29055 0.4831 83.2137 0003417 1.9229 319.1766 1.00273147 45727
UTC large
Height (km)
Speed (km/s)
/
Latitude / Longitude
Inclination (degrees)
Orbital Period (minutes)
Azimuth
Elevation
Range (km)
Doppler Factor

Next 0 passes for location: London (51.5072 / 0.1276)

No passes found over London.
ASTRA 1KR